Flag for U.S.A. Weather past 2 weeks in Trenton, New Jersey, U.S.A.

Now
82 °F

Sunny.


Feels Like: 84 °F
Forecast: 71 / 89 °F
Wind: 8 mph from North

Location: Mercer County Airport

Current Time: Sep 1, 2015 at 11:14:23 AM

Latest Report: Sep 1, 2015 at 9:53 AM


Visibility: 8 mi

Pressure: 30.03 "Hg

Humidity: 60%

Dew point: 67 °F

Location of TrentonLocation

Historic Weather in Trenton — Graph

°F

Trenton temperature yesterday

Maximum temperature yesterday: 89 °F (at 3:53 PM)
Minimum temperature yesterday: 73 °F (at 4:53 AM)
Average temperature yesterday: 82 °F

Past Weeks' High & Low Weather Summary

 TemperatureHumidityPressure
High92 °F (Aug 17, 1:53 PM)94% (Aug 19, 2:53 AM)30.20 "Hg (Aug 19, 2:53 AM)
Low58 °F (Aug 28, 6:53 AM)33% (Aug 22, 3:53 PM)29.80 "Hg (Aug 25, 4:53 PM)
Average75 °F66%30.00 "Hg
* Reported Aug 17 9:53 AM — Sep 1 9:53 AM, Trenton, Weather by CustomWeather, © 2015

Note: Actual official high and low records may vary slightly from our data, if they occured in-between our weather recording intervals... More about our weather records

Advertising

Trenton weather history for previous 24 hours

 ConditionsComfort  
Time TempWeatherWind HumidityBarometerVisibility
9:53 AM
Tue, Sep 1
82 °FSunny.8 mph60%30.03 "Hg8 mi
8:53 AM78 °FSunny.6 mph71%30.03 "Hg7 mi
7:53 AM73 °FSunny.5 mph84%30.02 "Hg5 mi
6:53 AM69 °FFog.No wind93%30.01 "Hg3 mi
5:53 AM70 °FFog.No wind90%29.99 "Hg5 mi
4:53 AM72 °FClear.No wind84%29.99 "Hg7 mi
3:53 AM72 °FPassing clouds.3 mph84%29.99 "Hg7 mi
2:53 AM73 °FClear.5 mph81%29.99 "Hg9 mi
1:53 AM75 °FClear.6 mph76%29.99 "Hg9 mi
12:53 AM75 °FClear.6 mph76%30.00 "Hg9 mi
10:53 PM
Mon, Aug 31
77 °FClear.5 mph77%29.99 "Hg8 mi
9:53 PM80 °FClear.5 mph69%29.98 "Hg8 mi
8:53 PM82 °FClear.7 mph65%29.97 "Hg9 mi
7:53 PM83 °FSunny.7 mph61%29.96 "Hg9 mi
6:53 PM85 °FSunny.7 mph55%29.95 "Hg9 mi
5:53 PM87 °FPassing clouds.8 mph51%29.95 "Hg9 mi
4:53 PM89 °FScattered clouds.12 mph46%29.95 "Hg9 mi
3:53 PM89 °FPassing clouds.12 mph46%29.96 "Hg9 mi
2:53 PM88 °FSunny.8 mph48%30.00 "Hg9 mi
1:53 PM86 °FSunny.8 mph57%30.00 "Hg9 mi
12:53 PM84 °FSunny.7 mph59%30.02 "Hg9 mi
11:53 AM86 °FPassing clouds.8 mph55%30.03 "Hg9 mi
Weather by CustomWeather, © 2015

See weather overviewHow to use our weather pages